Location: *
(0.1100°N, 5.5000°E)
Time: 13:49:22
(UTC+00:00)

Cosmos 1633 Rocket - Pass Details

Date: 07 December 2022
Orbit: 605 x 623 km, 82.5° (Epoch: 02 February)

Event Time Altitude Azimuth Distance (km) Brightness Sun altitude
Exits shadow 19:44:07 34° 264° (W) 1,016 4.5 -30.8°
Drops below altitude 10° 19:47:59 10° 201° (SSW) 1,969 6.1 -31.6°
Sets 19:50:21 0° 192° (SSW) 2,873 7.0 -32.2°
